Location: Ford County Road and Bridge Department
(37.7686°N, 99.9762°W)
Time: 01:13:01
(UTC+00:00)

Cosmos 2219 Rocket - Pass Details

Date: 18 January 2020
Orbit: 827 x 848 km, 71.0° (Epoch: 19 February)

Event Time Altitude Azimuth Distance (km) Brightness Sun altitude
Rises 00:43:43 0° 341° (NNW) 3,417 5.4 -11.3°
Reaches altitude 10° 00:46:13 10° 345° (NNW) 2,477 4.6 -11.8°
Maximum altitude 00:51:51 62° 65° (ENE) 950 2.2 -12.8°
Drops below altitude 10° 00:57:25 10° 146° (SE) 2,453 4.4 -13.9°
Sets 00:59:53 0° 150° (SSE) 3,381 5.2 -14.4°
